Wind_Speed
14 14 14 14 13 13 13 12 12 11 11 10 10 9 8 8 7 7 7 7 7 7 7 7 6 5 6 6 5 5 6 5 5 5 5 4 4 4 4 4 3 3 3
16 16 16 16 15 15 14 14 14 13 12 12 11 11 10 9 9 8 8 8 8 8 8 8 7 7 6 7 6 6 6 6 6 6 5 5 5 5 5 5 4 4 4
17 17 17 17 17 17 16 15 15 15 14 13 13 12 12 11 10 10 9 9 9 9 9 8 8 8 7 7 7 7 7 7 7 7 6 6 5 5 5 5 5 5 5
18 18 19 18 18 18 18 17 17 16 16 15 15 14 14 13 13 12 11 11 11 10 10 10 9 9 9 9 8 8 8 8 8 8 7 7 7 6 6 6 5 5 5
20 20 19 19 19 19 19 18 18 17 17 17 17 16 15 15 15 14 14 13 12 12 11 11 10 10 10 10 9 9 9 9 9 9 9 9 8 8 7 7 6 6 6
21 21 21 21 21 21 20 20 19 19 18 18 18 18 17 17 16 16 15 15 14 13 13 13 12 11 11 11 11 10 10 10 10 10 10 10 10 10 10 9 8 8 7
22 22 22 22 22 22 21 21 21 21 20 20 20 19 18 19 18 18 17 17 16 15 15 14 14 13 13 13 12 12 12 12 12 11 11 11 11 11 11 11 11 10 10
23 22 23 23 23 23 22 22 22 22 22 22 22 21 20 20 19 20 19 19 18 18 17 17 16 16 15 14 14 14 14 14 14 13 13 13 13 13 13 13 12 12 12
24 24 24 24 24 24 24 24 24 24 24 23 23 23 23 22 22 21 21 21 21 20 20 19 19 18 17 16 16 16 16 16 16 16 15 15 15 15 15 15 14 14 14
26 25 25 25 25 25 25 25 25 25 25 25 25 25 25 24 24 23 23 22 22 22 22 21 21 21 20 19 18 18 18 17 17 17 17 17 18 17 17 17 17 17 16
27 27 27 27 27 27 27 27 26 26 27 26 26 26 26 26 26 25 25 24 24 24 24 23 23 23 22 22 21 21 20 20 19 19 19 20 20 20 20 19 19 19 19
29 29 29 29 28 28 29 28 28 28 28 28 27 27 27 27 27 27 26 26 25 25 25 25 25 25 24 24 24 23 23 23 22 22 22 22 22 22 22 22 22 21 21
31 31 31 30 30 30 30 29 29 29 29 29 29 28 28 28 28 28 28 27 27 27 26 26 26 26 26 26 26 26 25 25 24 24 24 24 24 24 24 24 24 24 23
32 33 33 32 32 32 31 30 30 30 30 30 30 30 29 29 29 29 29 29 29 28 28 28 28 28 28 27 27 27 27 27 27 27 26 26 26 26 26 26 26 26 26
34 34 34 34 34 33 33 32 31 31 31 31 31 31 31 31 30 30 30 30 30 30 30 29 29 29 29 29 29 29 29 29 28 28 28 28 28 28 27 28 28 28 27
36 36 36 35 35 35 34 34 33 32 32 32 32 32 32 32 31 31 31 31 31 31 31 31 31 30 30 30 30 31 30 30 30 29 29 29 29 29 29 29 29 29 29
37 37 37 37 37 36 35 35 35 34 34 33 33 33 33 33 32 32 32 32 32 33 33 32 32 32 32 31 31 31 31 31 31 30 30 30 31 30 30 30 30 31 31
37 37 38 38 38 38 38 37 36 36 35 35 34 35 35 34 33 34 34 34 34 33 33 33 33 33 33 33 33 33 33 33 32 31 31 31 32 32 32 32 32 32 33
39 39 39 38 39 39 39 39 38 37 37 36 36 36 36 36 35 35 35 35 35 35 34 34 34 34 33 33 34 34 34 34 34 33 33 33 33 33 33 34 34 34 34
40 40 39 39 39 40 40 40 40 39 39 38 37 37 37 37 37 37 36 36 36 36 36 36 35 35 35 35 35 35 35 35 36 36 35 34 35 35 35 36 35 36 36
40 40 40 40 40 41 41 41 41 41 40 39 38 38 38 38 38 38 37 37 37 37 37 37 36 36 36 37 37 37 36 36 36 37 37 37 36 36 36 36 37 36 36
41 41 41 41 40 40 41 41 42 41 41 40 40 40 39 39 38 38 38 38 38 38 38 37 37 37 37 37 38 38 37 37 38 38 39 39 39 39 39 38 38 38 38
42 42 42 42 41 41 41 42 42 42 41 41 40 40 40 40 39 39 39 39 39 39 38 38 38 37 38 39 38 38 38 38 38 38 39 39 39 40 41 41 40 40 39
41 42 42 42 42 41 41 42 43 42 41 40 41 41 41 41 41 40 40 40 40 40 40 39 39 39 39 39 39 39 39 39 39 39 39 40 40 40 40 40 41 41 42
41 42 42 42 43 43 43 43 42 42 42 41 42 42 42 41 41 40 41 41 41 41 41 41 40 40 39 39 40 40 39 39 40 40 40 40 42 41 41 40 40 41 42
41 41 42 42 43 44 43 43 42 42 42 42 43 43 43 42 41 41 42 42 42 42 42 41 41 40 40 40 40 40 40 40 40 40 40 41 41 41 41 41 42 42 43
Wind_Direction
248 247 245 244 243 242 242 242 241 239 236 234 233 233 229 225 226 228 227 226 224 223 223 223 221 215 215 215 215 214 212 209 207 206 208 211 211 209 201 191 191 187 183
250 249 246 245 246 244 244 244 243 243 241 239 239 238 236 233 231 232 234 232 230 228 227 225 226 225 224 225 225 222 220 218 216 213 214 214 213 212 207 203 206 209 205
251 250 248 247 247 246 245 246 245 244 243 242 240 240 240 240 239 238 238 238 237 234 231 229 228 229 231 229 229 230 229 227 223 220 220 218 214 210 207 209 213 216 214
251 250 249 248 248 247 247 247 247 245 244 243 241 240 241 241 242 241 240 240 240 239 236 234 233 233 234 234 234 236 234 232 230 227 226 225 223 217 214 217 220 220 220
251 251 249 248 248 248 247 248 248 246 244 243 242 241 241 241 242 242 242 242 242 242 240 239 239 238 238 239 239 238 238 236 234 234 232 231 230 227 225 225 228 230 230
251 251 251 250 250 249 248 248 249 248 246 244 243 242 242 242 242 243 243 243 243 242 241 242 243 243 242 241 241 241 241 240 239 237 237 236 235 235 233 233 233 236 237
252 252 252 252 251 250 250 249 248 248 247 245 244 243 243 243 242 243 244 243 242 242 242 243 244 245 245 244 244 245 245 243 243 242 241 240 240 241 239 239 240 242 244
253 252 252 252 252 252 252 251 250 249 248 247 246 245 244 245 244 244 245 245 245 244 244 244 246 247 248 248 248 248 247 246 246 246 246 245 245 244 242 243 245 246 248
253 252 252 252 252 252 251 251 251 250 249 249 247 246 246 246 246 246 246 246 246 246 246 246 247 248 250 251 251 251 251 249 249 249 250 250 250 248 246 246 248 249 250
253 252 252 253 253 253 252 252 252 251 250 250 249 248 248 247 247 248 248 247 247 247 247 247 247 248 250 252 253 253 252 252 252 250 252 252 253 253 250 249 250 251 252
253 253 252 252 253 254 254 253 252 252 251 251 250 250 249 249 248 248 249 249 249 248 248 248 249 250 251 252 254 254 254 253 253 252 253 254 254 255 254 253 252 253 253
254 253 253 253 253 254 255 254 254 253 252 252 251 250 250 250 250 249 250 250 250 250 250 250 250 252 252 253 255 255 256 255 255 255 255 256 256 256 256 255 254 255 254
254 254 254 254 254 254 254 255 254 254 253 252 252 251 250 251 251 250 251 251 251 251 251 251 251 252 253 254 255 256 256 256 256 257 258 258 257 256 256 256 254 255 254
256 255 254 254 254 254 254 254 254 254 254 253 252 252 252 252 252 252 252 252 252 252 252 252 252 252 253 254 255 256 257 257 257 258 259 258 258 257 256 256 255 254 254
257 256 256 254 254 253 253 253 253 254 254 253 253 253 253 252 252 252 252 253 253 253 253 253 253 253 254 255 256 257 257 257 258 258 259 258 258 258 257 256 257 256 255
257 256 255 255 255 254 252 252 253 253 253 253 253 253 254 254 253 253 253 253 254 254 254 254 254 255 256 257 258 258 258 258 258 258 259 259 259 258 257 256 257 258 257
257 256 255 255 255 254 253 252 252 253 253 253 254 254 255 255 254 254 254 255 255 255 255 254 255 256 256 257 258 258 258 258 258 259 259 259 259 258 258 257 257 258 257
255 255 255 255 255 255 254 253 253 253 253 254 255 255 256 255 254 254 255 255 256 256 256 256 256 257 257 257 258 259 259 259 258 259 259 260 259 258 258 258 258 258 258
255 255 256 255 255 255 254 253 253 252 253 254 255 256 256 255 255 256 256 256 257 257 257 257 257 257 257 258 259 260 259 259 259 259 260 260 260 260 259 259 258 258 259
256 256 256 256 256 254 254 253 252 252 253 254 255 256 256 255 255 255 256 257 257 257 258 258 258 257 256 258 260 262 261 260 260 260 260 261 261 261 260 260 260 259 259
257 257 256 256 256 254 252 251 250 252 253 254 255 255 255 255 255 255 256 256 257 258 259 259 257 258 258 259 261 262 262 261 261 260 260 261 261 260 259 259 259 259 260
258 257 257 256 255 253 252 251 250 251 253 253 254 255 254 254 255 255 255 256 257 258 259 259 260 260 260 261 262 262 262 262 262 262 261 260 260 259 259 258 259 260 260
258 256 256 255 254 254 252 251 250 250 251 252 252 254 254 254 255 255 256 256 256 257 258 259 260 261 262 262 262 263 263 263 263 261 260 260 259 259 259 258 259 260 261
258 257 256 255 254 253 252 251 250 249 250 250 251 253 254 254 255 254 255 256 257 257 257 258 259 261 262 262 263 263 264 263 262 260 259 259 259 260 261 259 259 259 260
259 258 257 255 253 253 253 252 251 250 250 250 251 252 254 254 254 254 254 255 256 257 258 258 259 261 261 262 263 264 264 263 262 260 259 259 260 260 261 260 260 260 260
260 259 257 255 254 254 253 252 250 250 250 250 251 252 253 254 254 254 255 255 256 257 257 259 260 260 261 262 263 263 263 263 262 262 261 260 260 259 260 260 262 263 263
Height
5837 5837 5838 5839 5840 5841 5842 5843 5844 5845 5846 5847 5847 5848 5848 5849 5850 5850 5851 5852 5852 5853 5854 5855 5855 5856 5857 5857 5858 5859 5860 5860 5861 5862 5863 5863 5864 5865 5865 5866 5867 5868 5868
5835 5835 5836 5837 5838 5839 5840 5841 5842 5843 5844 5845 5846 5847 5847 5848 5849 5850 5850 5851 5852 5852 5853 5854 5855 5855 5856 5857 5858 5858 5859 5860 5861 5861 5862 5863 5864 5864 5865 5866 5867 5867 5868
5832 5832 5833 5835 5836 5837 5838 5839 5840 5841 5842 5843 5844 5845 5846 5847 5847 5848 5849 5850 5850 5851 5852 5853 5854 5854 5855 5856 5857 5858 5859 5859 5860 5861 5862 5862 5863 5864 5865 5865 5866 5867 5868
5829 5829 5830 5831 5833 5834 5835 5836 5837 5838 5839 5840 5841 5842 5844 5845 5846 5846 5847 5848 5849 5850 5851 5852 5853 5853 5854 5855 5856 5857 5858 5858 5859 5860 5861 5862 5863 5863 5864 5865 5866 5866 5867
5825 5826 5827 5828 5829 5831 5832 5833 5834 5835 5837 5838 5839 5840 5841 5842 5843 5844 5845 5846 5847 5848 5849 5850 5851 5852 5853 5853 5854 5855 5856 5857 5858 5859 5860 5861 5862 5862 5863 5864 5865 5866 5866
5822 5823 5824 5825 5826 5827 5829 5830 5831 5832 5834 5835 5836 5837 5838 5839 5840 5841 5842 5844 5845 5846 5847 5848 5849 5850 5851 5852 5853 5854 5855 5856 5857 5858 5859 5859 5860 5861 5862 5863 5863 5864 5865
5818 5819 5820 5821 5822 5823 5825 5826 5827 5829 5830 5831 5832 5833 5835 5835 5837 5838 5839 5841 5842 5843 5845 5846 5847 5848 5849 5850 5851 5852 5853 5854 5855 5856 5857 5858 5859 5859 5860 5861 5862 5863 5863
5814 5815 5816 5817 5818 5819 5820 5822 5823 5825 5826 5827 5829 5830 5831 5832 5833 5835 5836 5837 5839 5840 5842 5843 5844 5845 5846 5847 5848 5849 5850 5851 5853 5854 5855 5856 5856 5857 5858 5859 5860 5861 5861
5809 5810 5811 5812 5813 5815 5816 5817 5819 5820 5821 5823 5824 5826 5827 5828 5829 5831 5832 5834 5835 5837 5838 5839 5841 5842 5843 5844 5845 5847 5848 5849 5850 5851 5852 5853 5854 5855 5856 5856 5857 5858 5859
5804 5805 5806 5807 5809 5810 5811 5813 5814 5815 5817 5818 5820 5821 5822 5824 5825 5827 5828 5830 5831 5832 5834 5835 5837 5838 5840 5841 5842 5843 5845 5846 5847 5848 5849 5850 5851 5852 5853 5854 5854 5855 5856
5798 5799 5801 5802 5803 5804 5806 5807 5809 5810 5811 5813 5814 5816 5818 5819 5820 5822 5823 5825 5826 5828 5830 5831 5833 5834 5836 5837 5838 5840 5841 5842 5844 5845 5846 5847 5848 5848 5849 5850 5851 5852 5853
5792 5793 5794 5796 5797 5799 5800 5801 5803 5804 5806 5807 5809 5811 5812 5814 5815 5817 5819 5820 5822 5823 5825 5826 5828 5829 5831 5832 5834 5835 5837 5838 5840 5841 5842 5843 5844 5844 5845 5846 5847 5848 5849
5785 5787 5788 5789 5791 5792 5794 5795 5797 5798 5800 5801 5803 5805 5806 5808 5810 5811 5813 5815 5816 5818 5820 5821 5823 5824 5826 5827 5829 5830 5832 5833 5835 5836 5837 5838 5839 5840 5840 5841 5843 5844 5845
5778 5779 5781 5782 5784 5785 5787 5788 5790 5792 5793 5795 5797 5798 5800 5802 5803 5805 5807 5809 5811 5812 5814 5815 5817 5819 5820 5822 5823 5825 5826 5828 5829 5830 5832 5833 5833 5834 5835 5836 5837 5839 5840
5770 5772 5773 5775 5776 5778 5779 5781 5783 5785 5786 5788 5790 5792 5793 5795 5797 5799 5801 5802 5804 5806 5808 5809 5811 5813 5814 5816 5817 5819 5820 5822 5823 5824 5826 5826 5827 5828 5829 5831 5832 5833 5834
5762 5763 5765 5766 5768 5770 5772 5774 5775 5777 5779 5781 5783 5784 5786 5788 5790 5792 5794 5796 5797 5799 5801 5803 5804 5806 5808 5809 5811 5812 5814 5815 5817 5818 5819 5820 5821 5822 5823 5825 5826 5827 5828
5753 5754 5756 5758 5759 5761 5763 5765 5768 5770 5771 5773 5775 5777 5779 5781 5783 5784 5786 5788 5790 5792 5794 5795 5797 5799 5801 5803 5804 5805 5807 5808 5810 5811 5812 5813 5815 5816 5817 5818 5819 5821 5822
5744 5745 5747 5749 5750 5752 5754 5757 5759 5761 5763 5765 5767 5769 5771 5773 5775 5777 5779 5780 5782 5784 5786 5788 5790 5791 5793 5795 5797 5798 5800 5801 5802 5804 5805 5806 5807 5809 5810 5812 5813 5814 5815
5734 5736 5738 5740 5741 5743 5745 5747 5750 5752 5755 5757 5759 5761 5763 5765 5766 5768 5770 5772 5774 5776 5778 5780 5782 5784 5785 5787 5789 5790 5792 5793 5795 5796 5797 5799 5800 5801 5803 5804 5805 5806 5808
5724 5726 5728 5730 5731 5733 5735 5737 5740 5743 5746 5748 5750 5752 5754 5756 5758 5760 5762 5764 5766 5768 5770 5772 5774 5776 5777 5779 5781 5782 5784 5785 5787 5788 5789 5791 5792 5793 5795 5796 5798 5799 5800
5714 5716 5717 5719 5720 5722 5724 5727 5730 5733 5736 5739 5741 5743 5745 5747 5749 5751 5753 5755 5757 5759 5761 5763 5765 5767 5769 5770 5772 5774 5775 5776 5778 5779 5781 5782 5784 5785 5786 5788 5789 5790 5792
5704 5706 5707 5708 5709 5711 5714 5717 5720 5723 5726 5729 5731 5733 5736 5738 5740 5742 5744 5746 5748 5750 5752 5754 5756 5758 5760 5761 5763 5764 5766 5768 5769 5770 5772 5773 5775 5776 5778 5779 5780 5782 5783
5693 5695 5696 5697 5699 5700 5703 5706 5709 5713 5716 5719 5721 5724 5726 5728 5730 5732 5734 5736 5739 5741 5743 5745 5747 5749 5750 5752 5753 5755 5756 5758 5760 5761 5762 5764 5765 5767 5768 5769 5771 5772 5773
5683 5684 5685 5686 5688 5690 5693 5696 5699 5703 5706 5709 5711 5713 5716 5718 5720 5722 5725 5727 5729 5731 5734 5736 5738 5739 5741 5742 5743 5745 5747 5749 5750 5752 5753 5754 5756 5757 5758 5759 5761 5763 5764
5672 5673 5674 5675 5677 5680 5682 5685 5688 5692 5695 5698 5700 5703 5706 5708 5710 5712 5715 5717 5719 5722 5724 5726 5728 5729 5731 5733 5734 5735 5737 5738 5739 5741 5743 5745 5746 5747 5748 5750 5751 5752 5754
5661 5662 5664 5665 5667 5669 5671 5674 5678 5681 5685 5687 5690 5693 5695 5698 5700 5702 5704 5707 5709 5711 5714 5716 5718 5719 5721 5722 5724 5725 5727 5728 5729 5731 5732 5734 5736 5737 5738 5740 5741 5742 5743